Chicago, IL

7:37 PM CDT on April 28, 2017 (GMT -0500)
Chicago-O'Hare International

Weather History for KORD - April, 2013

Change the Weather History Date:

Sunday, April 21, 2013

  Actual Average Record
Temperature  
Mean Temperature 42 °F 51 °F  
Max Temperature 54 °F 61 °F 88 °F (1985)
Min Temperature 29 °F 41 °F 27 °F (1986)
Degree Days  
Heating Degree Days 23 15  
Month to date heating degree days 438 379  
Since 1 July heating degree days 5834 5954  
Cooling Degree Days 0 0  
Month to date cooling degree days 0 0  
Year to date cooling degree days 0 1  
Moisture  
Dew Point 25 °F    
Average Humidity 60    
Maximum Humidity 85    
Minimum Humidity 35    
Precipitation  
Precipitation 0.00 in 0.11 in 1.08 in (1973)
Month to date precipitation 7.84 2.32  
Year to date precipitation 16.43 8.34  
Snow  
Snow 0.00 in 0.00 in 0.60 in (1903)
Month to date snowfall 0.1 1.1  
Since 1 July snowfall 30.1 36.2  
Snow Depth 0.00 in    
Sea Level Pressure  
Sea Level Pressure 30.43 in    
Wind  
Wind Speed 12 mph (SE)    
Max Wind Speed 20 mph    
Max Gust Speed 25 mph    
Visibility 10 miles    
Events      
T = Trace of Precipitation, MM = Missing Value Source: NWS Daily Summary

Daily Weather History Graph

Daily Weather History Graph

Search for Another Location

Airport or City:

Trip Planner

Search our weather history database for the weather conditions in past years. The results will help you decide how hot, cold, wet, or windy it might be!

Date:

Astronomy

Apr. 21, 2013 Rise Set
Actual Time 6:01 AM CDT 7:39 PM CDT
Civil Twilight 5:32 AM CDT 8:09 PM CDT
Nautical Twilight 4:56 AM CDT 8:45 PM CDT
Astronomical Twilight 4:18 AM CDT 9:23 PM CDT
Moon 3:20 PM CDT (4/21) 3:27 AM CDT (4/21)
Length of Visible Light 14h 37m
Length of Day
13h 38m
Waxing Gibbous, 80% of the Moon is Illuminated
Apr 21
Waxing Gibbous
Apr 25
Full
May 2
Last Quarter
May 9
New
May 17
First Quarter

Hourly Weather History & Observations

Time (CDT) Temp. Windchill Dew Point Humidity Pressure Visibility Wind Dir Wind Speed Gust Speed Precip Events Conditions
12:51 AM 35.1 °F 30.1 °F 24.1 °F 64% 30.43 in 10.0 mi East 5.8 mph - N/A   Partly Cloudy
1:51 AM 34.0 °F 28.0 °F 25.0 °F 70% 30.44 in 10.0 mi East 6.9 mph - N/A   Clear
2:51 AM 35.1 °F 28.6 °F 24.1 °F 64% 30.45 in 10.0 mi ESE 8.1 mph - N/A   Partly Cloudy
3:51 AM 33.1 °F 26.9 °F 23.0 °F 66% 30.47 in 10.0 mi SE 6.9 mph - N/A   Partly Cloudy
4:51 AM 28.9 °F 21.1 °F 24.1 °F 82% 30.47 in 10.0 mi SSE 8.1 mph - N/A   Scattered Clouds
5:51 AM 30.9 °F 23.5 °F 23.0 °F 72% 30.49 in 10.0 mi SE 8.1 mph - N/A   Scattered Clouds
6:51 AM 34.0 °F 26.6 °F 21.9 °F 61% 30.51 in 10.0 mi SSE 9.2 mph - N/A   Mostly Cloudy
7:51 AM 36.0 °F 28.5 °F 19.9 °F 52% 30.52 in 10.0 mi SE 10.4 mph - N/A   Mostly Cloudy
8:51 AM 39.0 °F 30.6 °F 19.0 °F 45% 30.52 in 10.0 mi SE 15.0 mph - N/A   Mostly Cloudy
9:51 AM 43.0 °F 37.2 °F 19.0 °F 38% 30.52 in 10.0 mi SE 10.4 mph - N/A   Mostly Cloudy
10:51 AM 44.1 °F 37.4 °F 21.9 °F 42% 30.51 in 10.0 mi SSE 13.8 mph - N/A   Mostly Cloudy
11:51 AM 46.9 °F - 23.0 °F 39% 30.50 in 10.0 mi South 11.5 mph 17.3 mph N/A   Mostly Cloudy
12:51 PM 48.9 °F - 23.0 °F 36% 30.46 in 10.0 mi SSE 12.7 mph 20.7 mph N/A   Mostly Cloudy
1:51 PM 52.0 °F - 25.0 °F 35% 30.42 in 10.0 mi SE 17.3 mph - N/A   Scattered Clouds
2:51 PM 53.1 °F - 26.1 °F 35% 30.39 in 10.0 mi SE 12.7 mph 20.7 mph N/A   Scattered Clouds
3:51 PM 54.0 °F - 28.0 °F 37% 30.36 in 10.0 mi SSE 15.0 mph - N/A   Scattered Clouds
4:51 PM 54.0 °F - 27.0 °F 35% 30.35 in 10.0 mi SSE 13.8 mph - N/A   Scattered Clouds
5:51 PM 53.1 °F - 27.0 °F 37% 30.34 in 10.0 mi SSE 12.7 mph - N/A   Scattered Clouds
6:51 PM 51.1 °F - 28.0 °F 41% 30.34 in 10.0 mi SSE 15.0 mph - N/A   Scattered Clouds
7:51 PM 48.0 °F - 30.0 °F 50% 30.34 in 10.0 mi SSE 11.5 mph - N/A   Scattered Clouds
8:51 PM 46.9 °F - 30.0 °F 52% 30.35 in 10.0 mi SSE 11.5 mph - N/A   Partly Cloudy
9:51 PM 46.9 °F - 30.0 °F 52% 30.35 in 10.0 mi SSE 10.4 mph - N/A   Scattered Clouds
10:51 PM 46.0 °F 39.9 °F 30.0 °F 54% 30.34 in 10.0 mi SSE 13.8 mph - N/A   Scattered Clouds
11:51 PM 45.0 °F 39.3 °F 30.0 °F 56% 30.33 in 10.0 mi SSE 11.5 mph - N/A   Scattered Clouds